LHA8869 LEMI-LPLA

Flight info

Callsign LHA8869
Flight time N/A
Altitude 38000
Route REST1L RESTU N851 MGA M744 LASIB DCT GUNTI T25 LENSI/N0471F400 DCT BAVAS DCT REGLA H121 LM
Aircraft B77W/H-SDE1E2FGIJ1RWYZ/S

Departure

Time 2026-05-06 12:50
Airport Region of Murcia International Airport (LEMI)

Arrival

Time N/A
Airport Lajes Airport (LPLA)
Time Latitude Longitude Altitude Speed Heading
2026-05-06 12:34 37.80220 -1.13268 657 ft 0 kts 317°
2026-05-06 12:41 37.80218 -1.13265 657 ft 3 kts 317°
2026-05-06 12:42 37.80200 -1.13241 656 ft 4 kts 313°
2026-05-06 12:42 37.80184 -1.13220 655 ft 4 kts 301°
2026-05-06 12:42 37.80177 -1.13190 655 ft 4 kts 262°
2026-05-06 12:42 37.80184 -1.13158 654 ft 3 kts 250°
2026-05-06 12:43 37.80185 -1.13155 655 ft 0 kts 250°
2026-05-06 12:45 37.80184 -1.13156 654 ft 1 kts 244°
2026-05-06 12:46 37.80172 -1.13161 656 ft 3 kts 183°
2026-05-06 12:46 37.80152 -1.13138 657 ft 6 kts 128°
2026-05-06 12:46 37.80110 -1.13085 657 ft 9 kts 157°
2026-05-06 12:46 37.80055 -1.13111 657 ft 9 kts 225°
2026-05-06 12:47 37.79993 -1.13191 657 ft 19 kts 225°
2026-05-06 12:47 37.79882 -1.13333 657 ft 24 kts 225°
2026-05-06 12:47 37.79766 -1.13482 657 ft 24 kts 225°
2026-05-06 12:47 37.79651 -1.13630 657 ft 23 kts 225°
2026-05-06 12:48 37.79549 -1.13760 657 ft 17 kts 225°
2026-05-06 12:48 37.79471 -1.13850 657 ft 13 kts 203°
2026-05-06 12:48 37.79415 -1.13817 656 ft 9 kts 128°
2026-05-06 12:48 37.79399 -1.13742 659 ft 9 kts 92°
2026-05-06 12:49 37.79405 -1.13663 659 ft 9 kts 72°
2026-05-06 12:49 37.79440 -1.13595 657 ft 10 kts 49°
2026-05-06 12:49 37.79547 -1.13455 659 ft 39 kts 45°
2026-05-06 12:49 37.79924 -1.12972 661 ft 115 kts 45°
2026-05-06 12:50 37.80635 -1.12057 687 ft 170 kts 46°
2026-05-06 12:50 37.81492 -1.10978 1237 ft 180 kts 47°
2026-05-06 12:50 37.82404 -1.09853 1940 ft 183 kts 46°
2026-05-06 12:50 37.83329 -1.08733 2687 ft 188 kts 47°
2026-05-06 12:51 37.84349 -1.07493 2943 ft 218 kts 45°
2026-05-06 12:51 37.85495 -1.06108 3488 ft 235 kts 44°
2026-05-06 12:51 37.86710 -1.04645 4117 ft 248 kts 44°
2026-05-06 12:51 37.87971 -1.03127 4943 ft 253 kts 45°
2026-05-06 12:52 37.89264 -1.01569 5683 ft 263 kts 44°
2026-05-06 12:52 37.90613 -0.99942 6388 ft 273 kts 44°
2026-05-06 12:52 37.92002 -0.98267 7128 ft 279 kts 43°
2026-05-06 12:52 37.93408 -0.96598 8064 ft 274 kts 38°
2026-05-06 12:53 37.95110 -0.95579 8735 ft 275 kts
2026-05-06 12:53 37.96981 -0.95809 9506 ft 271 kts 336°
2026-05-06 12:53 37.98540 -0.97068 10271 ft 265 kts 311°
2026-05-06 12:53 37.99544 -0.99034 10869 ft 271 kts 287°
2026-05-06 12:54 37.99772 -1.01379 11705 ft 267 kts 262°
2026-05-06 12:54 37.99165 -1.03564 12809 ft 264 kts 238°
2026-05-06 12:54 37.97868 -1.05251 13632 ft 277 kts 215°
2026-05-06 12:54 37.96069 -1.06215 13983 ft 300 kts 200°
2026-05-06 12:55 37.93939 -1.06993 14185 ft 329 kts 198°
2026-05-06 12:55 37.91670 -1.07796 14430 ft 357 kts 198°
2026-05-06 12:55 37.89179 -1.08705 14907 ft 374 kts 199°
2026-05-06 12:55 37.86723 -1.09699 15614 ft 376 kts 206°
2026-05-06 12:56 37.84562 -1.11567 16321 ft 380 kts 227°
2026-05-06 12:56 37.83072 -1.14296 17311 ft 379 kts 245°
2026-05-06 12:56 37.82313 -1.17492 18318 ft 382 kts 261°
2026-05-06 12:56 37.82264 -1.20871 19088 ft 389 kts 277°
2026-05-06 12:57 37.82980 -1.24175 19768 ft 394 kts 285°
2026-05-06 12:57 37.83838 -1.27506 20459 ft 400 kts 285°
2026-05-06 12:57 37.84704 -1.30870 21313 ft 403 kts 285°
2026-05-06 12:57 37.85558 -1.34243 22201 ft 404 kts 284°
2026-05-06 12:58 37.86405 -1.37654 23048 ft 407 kts 283°
2026-05-06 12:58 37.87249 -1.41105 23753 ft 412 kts 283°
2026-05-06 12:58 37.88090 -1.44573 24362 ft 415 kts 283°
2026-05-06 12:58 37.88940 -1.48085 25074 ft 417 kts 283°
2026-05-06 12:59 37.89777 -1.51611 25706 ft 415 kts 281°
2026-05-06 12:59 37.90102 -1.55227 26080 ft 416 kts 265°
2026-05-06 12:59 37.89653 -1.58824 26581 ft 418 kts 253°
2026-05-06 12:59 37.88555 -1.62248 27189 ft 418 kts 244°
2026-05-06 13:00 37.87280 -1.65570 27783 ft 421 kts 244°
2026-05-06 13:00 37.85988 -1.68908 28358 ft 424 kts 244°
2026-05-06 13:00 37.84695 -1.72265 28900 ft 426 kts 244°
2026-05-06 13:00 37.83406 -1.75641 29430 ft 429 kts 244°
2026-05-06 13:01 37.82111 -1.79060 29921 ft 432 kts 245°
2026-05-06 13:01 37.80818 -1.82492 30318 ft 434 kts 245°
2026-05-06 13:01 37.79522 -1.85941 30829 ft 433 kts 245°
2026-05-06 13:01 37.78239 -1.89355 31449 ft 429 kts 245°
2026-05-06 13:02 37.76959 -1.92760 32134 ft 424 kts 245°
2026-05-06 13:02 37.75700 -1.96106 32756 ft 420 kts 245°
2026-05-06 13:02 37.74456 -1.99408 33284 ft 418 kts 244°
2026-05-06 13:02 37.73230 -2.02657 33741 ft 417 kts 244°
2026-05-06 13:03 37.71985 -2.05953 34133 ft 416 kts 244°
2026-05-06 13:03 37.70739 -2.09248 34473 ft 417 kts 244°
2026-05-06 13:03 37.69489 -2.12551 34731 ft 418 kts 244°
2026-05-06 13:03 37.68240 -2.15847 35138 ft 416 kts 244°
2026-05-06 13:04 37.66997 -2.19126 35502 ft 415 kts 244°
2026-05-06 13:04 37.65751 -2.22410 35748 ft 417 kts 244°
2026-05-06 13:04 37.64475 -2.25767 35823 ft 422 kts 244°
2026-05-06 13:05 37.61941 -2.32424 35933 ft 420 kts 244°
2026-05-06 13:05 37.59428 -2.39006 35917 ft 416 kts 244°
2026-05-06 13:06 37.56928 -2.45548 35907 ft 415 kts 244°
2026-05-06 13:06 37.54430 -2.52077 35906 ft 414 kts 244°
2026-05-06 13:07 37.51911 -2.58644 35925 ft 415 kts 244°
2026-05-06 13:07 37.49402 -2.65174 35918 ft 415 kts 244°
2026-05-06 13:08 37.46883 -2.71717 35909 ft 417 kts 244°
2026-05-06 13:08 37.44355 -2.78269 35886 ft 417 kts 244°
2026-05-06 13:09 37.41808 -2.84855 35882 ft 417 kts 244°
2026-05-06 13:09 37.39276 -2.91392 35909 ft 417 kts 244°
2026-05-06 13:10 37.36737 -2.97936 35906 ft 418 kts 244°
2026-05-06 13:10 37.34195 -3.04483 35909 ft 418 kts 244°
2026-05-06 13:11 37.31629 -3.11076 35901 ft 418 kts 244°
2026-05-06 13:11 37.29076 -3.17623 35898 ft 418 kts 244°
2026-05-06 13:12 37.26522 -3.24162 35909 ft 418 kts 244°
2026-05-06 13:12 37.24064 -3.30745 35909 ft 418 kts 252°
2026-05-06 13:13 37.23280 -3.38004 35939 ft 421 kts 266°
2026-05-06 13:13 37.23951 -3.45317 35959 ft 428 kts 280°
2026-05-06 13:14 37.25630 -3.52501 35949 ft 430 kts 282°
2026-05-06 13:14 37.27357 -3.59680 35929 ft 430 kts 281°
2026-05-06 13:15 37.29050 -3.66929 35900 ft 431 kts 281°
2026-05-06 13:15 37.30698 -3.74138 35903 ft 430 kts 281°
2026-05-06 13:16 37.32330 -3.81347 35898 ft 430 kts 281°
2026-05-06 13:16 37.33957 -3.88562 35909 ft 430 kts 281°
2026-05-06 13:17 37.35584 -3.95791 35896 ft 431 kts 281°
2026-05-06 13:17 37.37218 -4.03073 35905 ft 431 kts 281°
2026-05-06 13:18 37.38836 -4.10310 35905 ft 431 kts 281°
2026-05-06 13:18 37.40449 -4.17546 35930 ft 430 kts 281°
2026-05-06 13:19 37.42056 -4.24780 35912 ft 430 kts 281°
2026-05-06 13:19 37.43671 -4.32069 35908 ft 431 kts 281°
2026-05-06 13:20 37.45273 -4.39320 35902 ft 431 kts 280°
2026-05-06 13:20 37.46870 -4.46576 35904 ft 431 kts 280°
2026-05-06 13:21 37.48462 -4.53831 35907 ft 431 kts 280°
2026-05-06 13:21 37.50048 -4.61083 35915 ft 430 kts 280°
2026-05-06 13:22 37.51640 -4.68387 35899 ft 430 kts 280°
2026-05-06 13:22 37.53217 -4.75645 35908 ft 430 kts 280°
2026-05-06 13:23 37.54789 -4.82904 35905 ft 430 kts 280°
2026-05-06 13:23 37.56357 -4.90166 35915 ft 431 kts 280°
2026-05-06 13:24 37.57931 -4.97484 35924 ft 431 kts 280°
2026-05-06 13:24 37.59493 -5.04764 35919 ft 431 kts 280°
2026-05-06 13:25 37.61051 -5.12058 35931 ft 432 kts 280°
2026-05-06 13:25 37.62609 -5.19368 35915 ft 433 kts 280°
2026-05-06 13:26 37.64173 -5.26734 35919 ft 433 kts 280°
2026-05-06 13:26 37.65723 -5.34054 35936 ft 433 kts 280°
2026-05-06 13:27 37.67270 -5.41390 35924 ft 434 kts 280°
2026-05-06 13:27 37.68579 -5.47615 35916 ft 435 kts 280°
2026-05-06 13:28 37.70113 -5.54930 35923 ft 435 kts 280°
2026-05-06 13:28 37.71653 -5.62304 35926 ft 435 kts 280°
2026-05-06 13:29 37.73190 -5.69684 35920 ft 435 kts 280°
2026-05-06 13:29 37.74734 -5.77127 35911 ft 436 kts 280°
2026-05-06 13:30 37.76266 -5.84535 35919 ft 437 kts 280°
2026-05-06 13:30 37.77796 -5.91956 35911 ft 438 kts 280°
2026-05-06 13:31 37.79322 -5.99385 35929 ft 438 kts 280°
2026-05-06 13:31 37.80844 -6.06825 35924 ft 438 kts 280°
2026-05-06 13:32 37.82375 -6.14334 35924 ft 440 kts 281°
2026-05-06 13:32 37.83895 -6.21816 35919 ft 440 kts 281°
2026-05-06 13:33 37.85424 -6.29362 35920 ft 441 kts 281°
2026-05-06 13:33 37.86939 -6.36871 35922 ft 442 kts 281°
2026-05-06 13:34 37.88451 -6.44394 35914 ft 442 kts 281°
2026-05-06 13:34 37.89959 -6.51921 35923 ft 442 kts 281°
2026-05-06 13:35 37.91474 -6.59510 35926 ft 443 kts 281°
2026-05-06 13:35 37.92975 -6.67056 35925 ft 443 kts 281°
2026-05-06 13:36 37.94472 -6.74610 35928 ft 443 kts 281°
2026-05-06 13:36 37.95965 -6.82170 35923 ft 443 kts 281°
2026-05-06 13:37 37.97463 -6.89784 35932 ft 443 kts 281°
2026-05-06 13:37 37.98948 -6.97358 35943 ft 444 kts 281°
2026-05-06 13:38 38.00429 -7.04941 35933 ft 444 kts 281°
2026-05-06 13:38 38.01907 -7.12531 35932 ft 444 kts 281°
2026-05-06 13:39 38.03389 -7.20174 35932 ft 444 kts 281°
2026-05-06 13:39 38.04759 -7.27788 35931 ft 443 kts 279°
2026-05-06 13:40 38.05936 -7.35443 35941 ft 443 kts 279°
2026-05-06 13:40 38.07098 -7.43106 35934 ft 443 kts 279°
2026-05-06 13:41 38.08288 -7.50820 35943 ft 443 kts 279°
2026-05-06 13:41 38.09479 -7.58487 35947 ft 444 kts 279°
2026-05-06 13:42 38.10669 -7.66162 35954 ft 444 kts 279°
2026-05-06 13:42 38.11864 -7.73896 35961 ft 444 kts 279°
2026-05-06 13:43 38.13046 -7.81584 35970 ft 445 kts 279°
2026-05-06 13:43 38.14231 -7.89330 35965 ft 445 kts 279°
2026-05-06 13:44 38.15403 -7.97027 35970 ft 445 kts 279°
2026-05-06 13:44 38.16570 -8.04728 35963 ft 445 kts 279°
2026-05-06 13:45 38.17740 -8.12483 35966 ft 445 kts 279°
2026-05-06 13:45 38.19474 -8.24044 35959 ft 445 kts 279°
2026-05-06 13:46 38.20623 -8.31751 35959 ft 445 kts 279°
2026-05-06 13:46 38.21766 -8.39460 35963 ft 445 kts 280°
2026-05-06 13:47 38.22913 -8.47220 35964 ft 444 kts 280°
2026-05-06 13:47 38.24046 -8.54931 35965 ft 445 kts 280°
2026-05-06 13:48 38.25174 -8.62643 35972 ft 444 kts 280°
2026-05-06 13:48 38.26297 -8.70356 35981 ft 444 kts 280°
2026-05-06 13:49 38.27414 -8.78067 35980 ft 444 kts 280°
2026-05-06 13:49 38.28474 -8.85414 35987 ft 444 kts 280°
2026-05-06 13:50 38.29580 -8.93121 35989 ft 443 kts 280°
2026-05-06 13:50 38.30688 -9.00878 36005 ft 443 kts 280°
2026-05-06 13:51 38.31784 -9.08589 36005 ft 443 kts 280°
2026-05-06 13:51 38.32875 -9.16300 36000 ft 443 kts 279°
2026-05-06 13:52 38.33966 -9.24057 36011 ft 443 kts 279°
2026-05-06 13:52 38.35044 -9.31756 36009 ft 442 kts 279°
2026-05-06 13:53 38.36116 -9.39451 36018 ft 442 kts 279°
2026-05-06 13:53 38.37183 -9.47145 36011 ft 442 kts 279°
2026-05-06 13:54 38.38252 -9.54889 36021 ft 442 kts 279°
2026-05-06 13:54 38.39307 -9.62583 36020 ft 442 kts 279°
2026-05-06 13:55 38.40359 -9.70284 36030 ft 442 kts 279°
2026-05-06 13:55 38.41406 -9.77989 36031 ft 442 kts 279°
2026-05-06 13:56 38.42455 -9.85752 36030 ft 442 kts 279°
2026-05-06 13:56 38.43493 -9.93468 36034 ft 442 kts 279°
2026-05-06 13:57 38.44529 -10.01218 36247 ft 446 kts 279°
2026-05-06 13:57 38.45048 -10.05109 36596 ft 445 kts 279°
2026-05-06 13:57 38.45570 -10.09039 36988 ft 443 kts 279°
2026-05-06 13:58 38.46082 -10.12903 37384 ft 442 kts 279°
2026-05-06 13:58 38.46593 -10.16762 37687 ft 442 kts 279°
2026-05-06 13:58 38.47102 -10.20626 37937 ft 443 kts 279°
2026-05-06 13:58 38.47612 -10.24510 37981 ft 446 kts 279°
2026-05-06 13:59 38.48633 -10.32301 38037 ft 445 kts 279°
2026-05-06 13:59 38.49648 -10.40088 38048 ft 441 kts 278°
2026-05-06 14:00 38.50644 -10.47778 38051 ft 439 kts 278°
2026-05-06 14:00 38.51633 -10.55447 38053 ft 438 kts 278°
2026-05-06 14:01 38.52623 -10.63169 38056 ft 439 kts 278°
2026-05-06 14:01 38.53604 -10.70863 38051 ft 441 kts 278°
2026-05-06 14:02 38.54583 -10.78588 38055 ft 442 kts 278°
2026-05-06 14:02 38.55562 -10.86344 38059 ft 444 kts 278°
2026-05-06 14:03 38.56544 -10.94179 38062 ft 445 kts 278°
2026-05-06 14:03 38.57518 -11.01986 38061 ft 446 kts 279°
2026-05-06 14:04 38.58489 -11.09810 38060 ft 447 kts 278°
2026-05-06 14:04 38.59455 -11.17645 38071 ft 447 kts 279°
2026-05-06 14:05 38.60423 -11.25537 38057 ft 447 kts 279°
2026-05-06 14:05 38.61378 -11.33369 38060 ft 446 kts 279°
2026-05-06 14:06 38.62326 -11.41189 38068 ft 446 kts 279°
2026-05-06 14:06 38.63267 -11.48999 38066 ft 445 kts 279°
2026-05-06 14:07 38.64202 -11.56801 38065 ft 444 kts 279°
2026-05-06 14:07 38.65138 -11.64650 38065 ft 444 kts 279°
2026-05-06 14:08 38.66061 -11.72444 38066 ft 444 kts 279°
2026-05-06 14:08 38.66979 -11.80238 38074 ft 444 kts 278°
2026-05-06 14:09 38.67897 -11.88087 38075 ft 444 kts 278°
2026-05-06 14:09 38.68805 -11.95887 38075 ft 444 kts 278°
2026-05-06 14:10 38.69708 -12.03692 38074 ft 444 kts 278°
2026-05-06 14:10 38.70605 -12.11502 38076 ft 444 kts 279°
2026-05-06 14:11 38.71350 -12.18014 38076 ft 445 kts 279°
2026-05-06 14:11 38.72393 -12.27192 38078 ft 445 kts 279°
2026-05-06 14:12 38.73130 -12.33715 38082 ft 445 kts 279°
2026-05-06 14:12 38.74009 -12.41545 38075 ft 445 kts 279°
2026-05-06 14:13 38.74889 -12.49425 38085 ft 445 kts 279°
2026-05-06 14:13 38.75757 -12.57251 38084 ft 445 kts 279°
2026-05-06 14:14 38.76620 -12.65078 38085 ft 445 kts 279°
2026-05-06 14:14 38.77477 -12.72905 38083 ft 444 kts 279°
2026-05-06 14:15 38.78334 -12.80785 38078 ft 444 kts 279°
2026-05-06 14:15 38.79181 -12.88613 38079 ft 444 kts 279°
2026-05-06 14:16 38.80028 -12.96499 38094 ft 445 kts 279°
2026-05-06 14:16 38.80860 -13.04288 38101 ft 445 kts 279°
2026-05-06 14:17 38.81692 -13.12134 38093 ft 445 kts 279°
2026-05-06 14:17 38.82524 -13.20035 38097 ft 445 kts 280°
2026-05-06 14:18 38.83345 -13.27882 38090 ft 445 kts 280°
2026-05-06 14:18 38.84161 -13.35724 38094 ft 444 kts 280°
2026-05-06 14:19 38.84970 -13.43558 38109 ft 444 kts 280°
2026-05-06 14:19 38.85778 -13.51438 38097 ft 443 kts 280°
2026-05-06 14:20 38.86574 -13.59250 38102 ft 442 kts 280°
2026-05-06 14:20 38.87363 -13.67048 38106 ft 441 kts 280°
2026-05-06 14:21 38.88151 -13.74887 38105 ft 441 kts 280°
2026-05-06 14:21 38.88928 -13.82664 38111 ft 440 kts 280°
2026-05-06 14:22 38.89697 -13.90431 38099 ft 439 kts 281°
2026-05-06 14:22 38.90460 -13.98173 38108 ft 437 kts 281°
2026-05-06 14:23 38.91220 -14.05943 38103 ft 436 kts 281°
2026-05-06 14:23 38.91968 -14.13645 38113 ft 435 kts 280°
2026-05-06 14:24 38.92709 -14.21334 38113 ft 435 kts 280°
2026-05-06 14:24 38.93449 -14.29062 38116 ft 434 kts 281°
2026-05-06 14:25 38.94178 -14.36730 38125 ft 433 kts 280°
2026-05-06 14:25 38.94901 -14.44389 38120 ft 433 kts 280°
2026-05-06 14:26 38.95624 -14.52096 38126 ft 432 kts 280°
2026-05-06 14:26 38.96336 -14.59752 38109 ft 432 kts 281°
2026-05-06 14:27 38.97043 -14.67401 38119 ft 432 kts 280°
2026-05-06 14:27 38.97749 -14.75097 38124 ft 432 kts 280°
2026-05-06 14:28 38.98446 -14.82741 38127 ft 432 kts 280°
2026-05-06 14:28 38.99138 -14.90386 38125 ft 432 kts 280°
2026-05-06 14:29 38.99823 -14.98029 38120 ft 431 kts 281°
2026-05-06 14:29 39.00164 -15.05771 38139 ft 433 kts 276°
2026-05-06 14:30 39.00300 -15.13487 38147 ft 432 kts 276°
2026-05-06 14:30 39.00435 -15.21248 38125 ft 432 kts 276°
2026-05-06 14:31 39.00575 -15.28898 38125 ft 432 kts 276°
2026-05-06 14:31 39.00718 -15.36645 38174 ft 431 kts 276°
2026-05-06 14:32 39.00857 -15.44345 38143 ft 432 kts 276°
2026-05-06 14:32 39.00990 -15.52049 38134 ft 432 kts 276°
2026-05-06 14:33 39.01118 -15.59807 38138 ft 432 kts 276°
2026-05-06 14:33 39.01241 -15.67512 38128 ft 431 kts 276°
2026-05-06 14:34 39.01358 -15.75204 38145 ft 431 kts 276°
2026-05-06 14:34 39.01471 -15.82936 38150 ft 430 kts 276°
2026-05-06 14:35 39.01578 -15.90609 38134 ft 430 kts 276°
2026-05-06 14:35 39.01680 -15.98274 38134 ft 429 kts 276°
2026-05-06 14:36 39.01776 -16.05973 38142 ft 428 kts 276°
2026-05-06 14:36 39.01867 -16.13598 38143 ft 427 kts 276°
2026-05-06 14:37 39.01953 -16.21203 38146 ft 426 kts 276°
2026-05-06 14:37 39.02035 -16.28793 38150 ft 425 kts 276°
2026-05-06 14:38 39.02111 -16.36422 38130 ft 424 kts 276°
2026-05-06 14:38 39.02182 -16.43981 38146 ft 423 kts 276°
2026-05-06 14:39 39.02248 -16.51525 38152 ft 422 kts 276°
2026-05-06 14:39 39.02309 -16.59056 38153 ft 422 kts 276°
2026-05-06 14:40 39.02365 -16.66631 38161 ft 422 kts 276°
2026-05-06 14:40 39.02416 -16.74149 38157 ft 421 kts 276°
2026-05-06 14:41 39.02462 -16.81652 38184 ft 420 kts 276°
2026-05-06 14:41 39.02504 -16.89152 38164 ft 420 kts 276°
2026-05-06 14:42 39.02541 -16.96699 38159 ft 420 kts 276°
2026-05-06 14:42 39.02573 -17.04192 38161 ft 420 kts 276°
2026-05-06 14:43 39.02599 -17.11673 38160 ft 419 kts 276°
2026-05-06 14:43 39.02622 -17.19150 38162 ft 419 kts 276°
2026-05-06 14:44 39.02639 -17.26679 38166 ft 419 kts 275°
2026-05-06 14:45 39.02656 -17.37912 38169 ft 420 kts 275°
2026-05-06 14:45 39.02662 -17.45404 38166 ft 420 kts 275°
2026-05-06 14:46 39.02663 -17.52953 38166 ft 421 kts 275°
2026-05-06 14:46 39.02659 -17.60469 38170 ft 422 kts 275°
2026-05-06 14:47 39.02649 -17.68004 38174 ft 423 kts 275°
2026-05-06 14:47 39.02635 -17.75603 38125 ft 423 kts 275°
2026-05-06 14:48 39.02616 -17.83157 38169 ft 424 kts 275°
2026-05-06 14:48 39.02593 -17.90729 38177 ft 425 kts 275°
2026-05-06 14:49 39.02564 -17.98369 38175 ft 426 kts 275°
2026-05-06 14:49 39.02530 -18.05972 38181 ft 426 kts 275°
2026-05-06 14:50 39.02491 -18.13580 38179 ft 426 kts 275°
2026-05-06 14:50 39.02447 -18.21186 38174 ft 426 kts 274°
2026-05-06 14:51 39.02398 -18.28847 38186 ft 427 kts 274°
2026-05-06 14:51 39.02344 -18.36459 38181 ft 426 kts 274°
2026-05-06 14:52 39.02285 -18.44064 38175 ft 426 kts 274°
2026-05-06 14:52 39.02222 -18.51657 38180 ft 425 kts 274°
2026-05-06 14:53 39.02153 -18.59298 38186 ft 425 kts 274°
2026-05-06 14:53 39.02079 -18.66890 38185 ft 426 kts 274°
2026-05-06 14:54 39.02001 -18.74487 38188 ft 426 kts 274°
2026-05-06 14:54 39.01918 -18.82140 38184 ft 426 kts 274°
2026-05-06 14:55 39.01830 -18.89745 38185 ft 426 kts 274°
2026-05-06 14:55 39.01736 -18.97353 38188 ft 426 kts 274°
2026-05-06 14:56 39.01638 -19.04963 38193 ft 427 kts 274°
2026-05-06 14:56 39.01535 -19.12575 38152 ft 427 kts 274°
2026-05-06 14:57 39.01444 -19.19013 38187 ft 426 kts 274°
2026-05-06 14:57 39.01332 -19.26568 38196 ft 426 kts 274°